顯示廣告
隱藏 ✕
※ 本文為 MindOcean 轉寄自 ptt.cc 更新時間: 2020-11-14 02:47:25
看板 Gossiping
作者 craig5566 (飛天少女豬)
標題
 [問卦] YouTube 是不是掛了

時間 Thu Nov 12 08:18:23 2020


剛剛打開YT
發現影片跑不太動 都是黑畫面
看了一下Twitter 好像很多人都是
有沒有YouTube 掛了 的八卦



工程師搶修中

https://i.imgur.com/xZl8lX7.jpg
[圖]

--
--
※ 發信站: 批踢踢實業坊(ptt.cc), 來自: 185.134.130.171 (德國)
※ 文章代碼(AID): #1Vh7zHBq (Gossiping)
※ 文章網址: https://www.ptt.cc/bbs/Gossiping/M.1605140305.A.2F4.html
massbalance: 我的YT也不能看了1F 11/12 08:18
※ 編輯: craig5566 (185.134.130.171 德國), 11/12/2020 08:19:02
GiftjokerPTT: 42F 11/12 08:18
st900278: 掛了3F 11/12 08:18
hidewin200: 掛了阿 等死猴子維修4F 11/12 08:18
fly19920820: 同樣+15F 11/12 08:18
lottery13: 掛了 +16F 11/12 08:18
waing030: 打不開+17F 11/12 08:18
a23123810: 我的也掛了8F 11/12 08:18
tshs0821: 不~~~9F 11/12 08:18
happyyoung: 410F 11/12 08:18
amphiprion: 開始築牆了11F 11/12 08:18
serenehsiao: 掛了12F 11/12 08:18
lindywell: 掛了 4v害的13F 11/12 08:19
rhythm7321: 原來不是我的問題14F 11/12 08:19
aqlec: +1,果然一有事上PTT查就知道了15F 11/12 08:19
twl95123: 我的也跑不動QQ16F 11/12 08:19
dogluckyno1: 掛了17F 11/12 08:19
kenny7076: 原來不是我的問題XD18F 11/12 08:19
java76803: 築牆中 以後打開都是中國視頻19F 11/12 08:19
sam9371: 太好了 重開機還是轉圈圈 看來不是只有我20F 11/12 08:19
LianJ: +121F 11/12 08:19
storye30182: 加一22F 11/12 08:19
lanlanlu5566 
lanlanlu5566: 我以為我手機網路問題23F 11/12 08:19
ander827: 我以為是我網路問題24F 11/12 08:19
ga2006221985: 垃圾公司架的垃圾網站25F 11/12 08:19
Buu: *126F 11/12 08:19
a210510: 是27F 11/12 08:19
becketliao: +128F 11/12 08:20
tttxxx: 我以為是我電腦的問題 原來大家都有問題29F 11/12 08:20
rickyred: 卡在廣告跳不出來30F 11/12 08:20
franchy: 恢復了31F 11/12 08:20
liuhanxivv: +132F 11/12 08:20
Ram5566: 好了33F 11/12 08:20
ha1986620: +134F 11/12 08:20
Matil2258037: 還好我都用優酷35F 11/12 08:20
da30177: 我還以為重新開機有用36F 11/12 08:20
radiotofu: 卦了37F 11/12 08:20
adon0313: 被綠共下架了38F 11/12 08:21
jimmy885: 拜登的陰謀39F 11/12 08:21
chun821543: +140F 11/12 08:21
TomHankson: +241F 11/12 08:21
abjeffop: 八卦版真讚42F 11/12 08:21
cow7585519: 443F 11/12 08:21
WiserWilly: 薪水小偷!上班看影片!抓到了44F 11/12 08:21
aqlec: 修好了.......45F 11/12 08:21
kamio: +146F 11/12 08:21
woody1good: 爆惹47F 11/12 08:21
kobe9527: 還沒好啊48F 11/12 08:21
aaron1213: 449F 11/12 08:22
futzche: 沒好啊50F 11/12 08:22
qazwsx1029: 真的爛爆51F 11/12 08:22
superQQ: 452F 11/12 08:22
TWBilly: 還是掛的53F 11/12 08:22
loveyoucheng: 糞YT害我開BILIBILI54F 11/12 08:22
Bright: 恢復了55F 11/12 08:22
TuChinJui: 是,能搜尋能開頁面,但影片不會動56F 11/12 08:22
van2037: 這時侯看ptt就對了57F 11/12 08:22
iosian: 是58F 11/12 08:22
YummyCurry: +159F 11/12 08:22
bengowa: 樓下有幾顆蛋蛋?60F 11/12 08:22
jackhu0918: 看個影片一直轉圈圈61F 11/12 08:23
jesuscries: 4 正想問62F 11/12 08:23
u943143: 一直轉圈圈   老闆YouTube壞了63F 11/12 08:23
ethan3226: 這樣我要怎麼看vtuber?64F 11/12 08:23
letmesee3085: 465F 11/12 08:23
klt: 還好廣告已經可以看了,果然是能賺錢的東西先修好66F 11/12 08:23
chen10: 467F 11/12 08:23
STi2011: 網紅失業中68F 11/12 08:23
Bright: 樓下是不是有大ㄋㄟㄋㄟ69F 11/12 08:23
avexgroup: 444470F 11/12 08:23
bbbruce: 471F 11/12 08:23
benny614017: +172F 11/12 08:24
Zeldaman: 媽的工程師領這麼多是吃屎的是不是73F 11/12 08:24
Healine: 無限轉圈74F 11/12 08:24
hitmd: 475F 11/12 08:24
Watanabe: QQ76F 11/12 08:24
aqlec: 剛剛不行,現在正常+1.....77F 11/12 08:24
wario2014: 幹,server不是都在台灣嗎,轉三小78F 11/12 08:25
jacklinjia: 479F 11/12 08:25
victor0424: 真的是有問題上ptt就知道80F 11/12 08:25
toymy: 4 崩潰81F 11/12 08:25
yj860318: 壞掉了82F 11/12 08:25
aqlec: 幹,回完推文又掛了..........83F 11/12 08:25
drlee1231: me too84F 11/12 08:25
hyde711034: 等那天要收錢才能看就崩潰了85F 11/12 08:25
Bright: 樓下一天孕吐幾次86F 11/12 08:26
eyecake: GG87F 11/12 08:26
etoile9: 一直轉一直轉88F 11/12 08:26
yihlin945: 幹89F 11/12 08:26
id600: Premium白買了90F 11/12 08:26
NYYAllen: 看對!!!91F 11/12 08:26
Neversayquit: 修好了92F 11/12 08:26
leon771170: 問卦 幹 YT掛了看PTT才知道的是?93F 11/12 08:26
Ininderrr: 又壞了94F 11/12 08:27
A80211ab: 好了  我可以看了95F 11/12 08:27
Xaymaca: 對    全掛了96F 11/12 08:27
fangachien: 497F 11/12 08:27
ms042597617: 我還以為是我網路問題98F 11/12 08:28
birdlover: 掛ㄌ99F 11/12 08:28
Mayliu: 我本來也以為是自己網路的問題100F 11/12 08:28
SeTeVen: 笑死,死全家的黨工五毛是不是什麼都要扯共101F 11/12 08:28
KarenDESU: 卡很久102F 11/12 08:28
fromwilda: 掛了103F 11/12 08:28
pentasy: 垃圾公司104F 11/12 08:28
lucks0306: 我想認真問 為什麼廣告不會掛 紅明顯105F 11/12 08:28
TuChinJui: 我大谷歌就是比Line快恢復 留言都還沒破百XD106F 11/12 08:29
klises: 是 一直轉107F 11/12 08:29
yoher: 剛剛好了108F 11/12 08:29
ecryomafl: 還以為是我網路問題109F 11/12 08:29
superQQ: 我還以為是我的網路,原來是國家機器在動110F 11/12 08:29
GhOsT1211: 4111F 11/12 08:30
peeter1423: 4112F 11/12 08:31
lisa870076: QQ113F 11/12 08:31
tzboy: 還好我有愛醬114F 11/12 08:31
linotwo: 剛剛好了但是手癢去按F5 又開始轉圈圈115F 11/12 08:32
araree88: Gigi116F 11/12 08:32
abex144312: 4117F 11/12 08:32
jason1515: 我還以為是我手機有問題118F 11/12 08:32
funami087: 幹 掛了119F 11/12 08:32
Number9527: 爛120F 11/12 08:32
yovoliia: YT壞了要怎麼作薪水小偷121F 11/12 08:32
andy6805: 改看pornhub就好了122F 11/12 08:32
zxcelephant: 可以看啊,手機版的介面又更新了123F 11/12 08:33
tony900735: 4124F 11/12 08:33
tommytyc: 是125F 11/12 08:33
soso5200ptt: +1126F 11/12 08:33
daisy0804123: +1127F 11/12 08:34
pili30155: +1128F 11/12 08:34
allenhsu222: 掛了129F 11/12 08:34
ui5550: 4130F 11/12 08:34
huabandd: 我的正常欸,你們還在壞嗎?131F 11/12 08:34
sses60802: 嗚嗚嗚嗚132F 11/12 08:34
zorogto: 掛了  .....133F 11/12 08:34
massrelay: +1134F 11/12 08:35
darren8221: +1135F 11/12 08:35
htc10: 4136F 11/12 08:35
yahaha886: 這樣上班路上要幹嘛137F 11/12 08:36
huabandd: 手機的打不開,但是電腦可以138F 11/12 08:36
kenco: 我目前正常139F 11/12 08:37
ak77889: +1140F 11/12 08:37
STARKWANG: 正片跑不出來,廣告倒是挺順的141F 11/12 08:37
zinga: 開始言論審查142F 11/12 08:37
huabandd: 手機連網頁版都不行,慘143F 11/12 08:38
chunptt: +1!! 我還以為我家網路問題144F 11/12 08:38
oneoreo: 廣告順暢哈哈145F 11/12 08:38
d421332: 美國 也掛了 害我一直重開146F 11/12 08:38
freshbox7: 轉圈要轉超久才出來影片....爛147F 11/12 08:38
TyrantTex: +1   144p才能看148F 11/12 08:38
zu00405479: 剛剛看好惹149F 11/12 08:39
alienplanet: 暴動150F 11/12 08:39
hedgehogs: 原來不止我151F 11/12 08:39
cody123003: 我現在看B站視頻代替152F 11/12 08:39
hugo0015227: 剛剛yt music也有問題QQ153F 11/12 08:39
tomvsjerry: 以爲自己看的片單被清算了154F 11/12 08:39
aspeter: yt掛了+1155F 11/12 08:40
Templar47: +1156F 11/12 08:40
jplix: 美國掛了+1 還以為網路問題157F 11/12 08:40
superQQ: Google 要暴跌了158F 11/12 08:40
MDM2: 美國掛了+1y159F 11/12 08:40
linuxmis: 掛了!+1160F 11/12 08:41
xhs: 海底電纜又被中國魚民又斷?161F 11/12 08:41
xhs: 用斷
blacksctbc: 卡163F 11/12 08:41
cpx117110: +1==164F 11/12 08:41
Seric: 4165F 11/12 08:42
melissalewis: 被xx進攻了吧166F 11/12 08:42
dor7is: 原來不是只有我QQ167F 11/12 08:42
abei125: 掛了168F 11/12 08:42
zxc90147: 掛了169F 11/12 08:43
aass5576843: 啊啊啊啊還我yt170F 11/12 08:43
qaz0314: 4 要轉個三五分鐘171F 11/12 08:43
eric911116: 掛了172F 11/12 08:43
sarachin: 掛了,只能看留言XD173F 11/12 08:44
redumbrella: 到底在轉什麼意思的喔喔哦哦174F 11/12 08:44
phill0101: 掛了...改看PH吧175F 11/12 08:44
larailing: 台灣連水管會先連到米國在連回來台灣 掛了正常176F 11/12 08:44
suin7913: 日本也掛了177F 11/12 08:44
MashiroX421: 每天的早餐就這樣沒了...178F 11/12 08:44
suin7913: 看來是全世界都掛了179F 11/12 08:44
harry7777: 只能讀留言180F 11/12 08:44
andy0210: 4181F 11/12 08:44
awdsak47: 沒錯爹斯182F 11/12 08:45
freshbox7: 還以為只有台灣出問題183F 11/12 08:45
orfan: 拜登瀛惹184F 11/12 08:45
socialhero: 也是讀取跑很久,等維修吧...185F 11/12 08:45
tinybunny: 打開了沒影片186F 11/12 08:45
iiKryptos: 果然有事上ptt就對了187F 11/12 08:46
exrck: 現在好了嗎188F 11/12 08:47
gn01693664: 4189F 11/12 08:47
ninjapig: 前幾天就有點怪怪的了191F 11/12 08:48
StinkySmell: 全世界都掛 會是什麼大規模行銷活動嗎192F 11/12 08:48
LoveloliLee: 4193F 11/12 08:48
richard42: 奇怪今天又不是假日 工程師沒上班?194F 11/12 08:49
fxxkgov: 好像在更新,我蘋果ipad195F 11/12 08:49
ginobili62: 讚讚196F 11/12 08:49
Mubing: 上班時間一堆人反應YT打不開?幫老闆默哀197F 11/12 08:49
aegis91086: 現在好了198F 11/12 08:49
sky77725: 害我一直重新下載....原來大家都一樣199F 11/12 08:49
amishitter: 還想說該換手機了200F 11/12 08:49
MTSquare: 4201F 11/12 08:50
powyo: yahooo也掛了202F 11/12 08:50
hungpeisheng: 澳洲也掛了203F 11/12 08:51
NgJovi: AI決定自肛204F 11/12 08:51
chengyu1010: 媽的害我以為網路爆了205F 11/12 08:51
timboy512: 上班時間看什麼yt206F 11/12 08:51
id543: +1 還以為網路問題QQ207F 11/12 08:52
Townshend: 只有廣告沒壞 真神奇208F 11/12 08:52
remyeex: 還沒好209F 11/12 08:52
lurlur: 我還以為是我的Adblock壞了210F 11/12 08:52
luciffar: 壞了三分鐘 現在好了211F 11/12 08:52
icexfox: 4212F 11/12 08:53
paladada: 會卡213F 11/12 08:53
bakapika: 改看嗶哩嗶哩214F 11/12 08:53
nyu5765: +1以為是網路有問題215F 11/12 08:53
lianpig5566: 我的好了216F 11/12 08:53
TwisTw: 我也不能用欸217F 11/12 08:53
※ 編輯: craig5566 (185.134.130.171 德國), 11/12/2020 08:54:16
AntitheApple: 直播還是不能看218F 11/12 08:53
goldflower: 新一波的言論審查測試而已 別緊張219F 11/12 08:53
a22234798: 只能看廣告220F 11/12 08:53
x58420: 還是卡卡的221F 11/12 08:54
[圖]
tainanpeter: 掛了223F 11/12 08:55
henry4204aaa: I’m not alone~224F 11/12 08:56
jimmy0738257: 我的還沒好225F 11/12 08:56
harunatsu: 我也以為自己網路問題…226F 11/12 08:56
mightshowgun: 重新整理幾次就好了227F 11/12 08:57
db486250: 正想罵電信公司的說228F 11/12 08:57
jyhtai: 原來~~不過我現在可以開了229F 11/12 08:57
crang: +1230F 11/12 08:59
xavier626: 4 好想聽音樂231F 11/12 08:59
qaz0314: 現在全掛了 gg232F 11/12 09:01
comet526: 我以為太常上班看被公司鎖了233F 11/12 09:01
duckling4343: 以為被資訊鎖IP了XD234F 11/12 09:02
chengmei: 4 一直跑圈圈235F 11/12 09:02
tranquilmare: 掛了+1236F 11/12 09:02
angie668492: 是237F 11/12 09:03
sharrys: 凌晨三點多就不能用了238F 11/12 09:04
LoveJapan: 快一小時還沒修好哭啊239F 11/12 09:04
gaddafi: 可以開啊240F 11/12 09:07
CloudVII: 難怪超卡...241F 11/12 09:07
kartd0149868: 我也以為網路 但不看影片只是瀏覽又很順 這幾天是怎242F 11/12 09:07
kartd0149868: 樣 先Line後YT 都要出一輪狀況
gaddafi: 為什麼沒人給油管一次黃標244F 11/12 09:07
sallyhelp: 幹他媽點影片跑碗廣告不能看,有夠垃圾245F 11/12 09:08
lovepolaris: 真的掛點了246F 11/12 09:08
DoveX: 難怪跑很慢247F 11/12 09:08
hijacknokia: 幹 我還以為新拿到的12 pro有問題248F 11/12 09:08
leo07172255: 還好我並不孤單249F 11/12 09:08
namirei: 這種伺服器,雲端相簿還想收錢?250F 11/12 09:11
Maplekuso: qq 精神食糧251F 11/12 09:11
CokeCake: 難怪不能看252F 11/12 09:11
bookzxz123: 掛了 我也是253F 11/12 09:11
wu21607: 掛254F 11/12 09:12
comit: 網頁版可以255F 11/12 09:12
ongseongwu19: 掛......256F 11/12 09:12
s930120hung: 還以為是自己問題257F 11/12 09:12
OzzTitle: 掛了+1258F 11/12 09:13
homer00 
homer00: 掩埋證據嗎?259F 11/12 09:14
LoserLee: 掛掉+1廢片YT網紅484要哭了(修好後一定各種吵...260F 11/12 09:14
dreamdudu: 不能+1261F 11/12 09:14
jaimejaime: 掛ㄌ!!!!! 嗚嗚嗚262F 11/12 09:14
left0813: 我還登出重登帳號 結果跟我說沒有這個帳號 傻眼 結果是Y263F 11/12 09:14
left0813: OUTUBE本身問題
Lan90: 4265F 11/12 09:15
a0916665106: 4266F 11/12 09:16
s11114120: 志祺七七準備發片中267F 11/12 09:17
roktzzt: 4268F 11/12 09:17
QQ5566: 4269F 11/12 09:17
end20160608: 原來是掛了,難怪早上要聽音樂都跑不動270F 11/12 09:17
aneshsiao: 誰叫台灣最支持川普271F 11/12 09:19
neverhestite: 一有事看ptt果然是正確的!272F 11/12 09:20
Twlight0207: 哭啊http://i.imgur.com/ieUAobf.jpg273F 11/12 09:20
[圖]
liao0409: 這樣的品質還想賣premium ???274F 11/12 09:20
nayeonmywife: youtube斷線是發生什麼事呢? 1.網路 4.請留言275F 11/12 09:20
hsdheart: 掛了276F 11/12 09:21
erty2852: 爛277F 11/12 09:21
pokemonoxo: 4278F 11/12 09:22
pokemonoxo: ytber即將失業
pokemonoxo: 前陣子就覺得他響應很慢了
pokemonoxo: 一直以為是我網路問題
early755126: 薪水小偷們表示難過QQ282F 11/12 09:23
victo1992r: +1283F 11/12 09:23
lcw1995: 慘284F 11/12 09:24
clc0: 關鍵大事查ptt準沒錯285F 11/12 09:24
frlair: 剛剛播放清單掛著~一首一首跳錯誤~結果突然有聲音~286F 11/12 09:24
twmarstw7758: 4287F 11/12 09:24
d19791313d: 掛了 +1288F 11/12 09:26
fionhihi: 可惡韓國也上不去289F 11/12 09:26
alevelman: 4290F 11/12 09:26
f585: You are not alone XD291F 11/12 09:27
a2156700: 掛了 還我以為是adb292F 11/12 09:28
spikes9933: 4444444444293F 11/12 09:28
jane5791017: 從發現到現在差不多一個小時還沒好294F 11/12 09:28
jane5791017: 還以為更新一下就好結果QQ
jane5791017: 早知道不更新
sharry3018: 我還以為是我網路問題297F 11/12 09:29
jackyyuh: 好了298F 11/12 09:29
angellagaby: 掛了(慘叫299F 11/12 09:30
xuwander: 掛了300F 11/12 09:30
pipitruck: ++301F 11/12 09:30
lcccpkhtp: 害我以為蘇花沒訊號…302F 11/12 09:30
andy3231: 活啦303F 11/12 09:32
wei8er: 等等11點的馬信首播怎麼辦嗚嗚嗚304F 11/12 09:32
sam70239: 我現在好了305F 11/12 09:33
brianhsu: 掛了,本來還以為網路問題,結果 4G 或固網都不能看306F 11/12 09:34
koreasuck: 可以看.但首頁沒東西307F 11/12 09:34
grimm3231: 回來了308F 11/12 09:35
weixweixwei: 可以開囉309F 11/12 09:36
chyo0722: 首頁空白310F 11/12 09:38
ongseongwu19: 可以看囉!311F 11/12 09:40
aco0214: 現在可以看了!!!!希望等等不要又掛掉312F 11/12 09:40
Sousake: 正在幫大家做自我審查,不要緊張。313F 11/12 09:42
alevelman: 復活314F 11/12 09:43
chiaia7: 這幾天Line完換ig,ig完換yt...315F 11/12 09:44
ckmi7596: 刪選舉作弊的影片囉316F 11/12 09:44
jhihheng: 看屁喔 不用上班是不是317F 11/12 09:51
strlen: 可以聽鯊鯊唱ㄍ惹318F 11/12 09:58
yellow1994: 本來以為是廣告阻擋的問題319F 11/12 09:59
xxxxyen5566: 沒畫面...只有聲音320F 11/12 10:30
wang460313: 4321F 11/12 10:37
prayer513: 是不是該退費給premium用戶322F 11/12 10:42
prankjc: 在國外也掛了323F 11/12 10:42
jamessytba: 手機版沒事 只是最下面bar欄應該是有修過了324F 11/12 10:59
pudings: 繼臉書、推特updated黑箱之後,google也要加入了嗎?325F 11/12 11:14
pudings: 合理懷疑是要刪除影響選舉有關的影片,推特上次更新玩過
pudings: 這招了,我懂
hyd789: 昨天就有點怪328F 11/12 11:23
david12763: 手機沒事329F 11/12 11:27
LoveInSongs: https://youtu.be/MYoXdGlc25M 給你看330F 11/12 15:33
dinotea: 內戰?331F 11/12 23:41

--
※ 看板: Gossiping 文章推薦值: 0 目前人氣: 0 累積人氣: 3036 
※ 推薦文章:
1樓 時間: 2020-11-12 09:01:34 (台灣)
     (編輯過) TW
+1 又壞了
2樓 時間: 2020-11-12 09:12:07 (台灣)
  11-12 09:12 TW
+1
3樓 時間: 2020-11-12 09:16:21 (台灣)
     (編輯過) TW
小粉紅的分流影片可以放 HOLO的直播動不了 有沒有搞錯阿
4樓 時間: 2020-11-12 09:16:06 (台灣)
  11-12 09:16 TW
···
line掛點
5樓 時間: 2020-11-12 09:16:41 (台灣)
  11-12 09:16 TW
以後大開YT直接出現B站內容,一鍵三連改一鍵四連
6樓 時間: 2020-11-12 09:19:39 (台灣)
     (編輯過) TW
又壞了,出現發生錯誤,請稍後再試
7樓 時間: 2020-11-12 09:25:49 (台灣)
  11-12 09:25 TW
還想說中毒了,原來是YT掛了。
8樓 時間: 2020-11-12 09:26:50 (台灣)
  11-12 09:26 TW
又是老共搞得鬼?
9樓 時間: 2020-11-12 09:28:39 (台灣)
  11-12 09:28 TW
點不進去 影片
是油管公司主機被駭客恐攻嗎?
10樓 時間: 2020-11-12 09:46:16 (台灣)
  11-12 09:46 TW
···
line  +1
11樓 時間: 2020-11-12 09:46:58 (台灣)
  11-12 09:46 TW
油管堵了
12樓 時間: 2020-12-14 20:25:50 (台灣)
  12-14 20:25 TW
OOP..........????
13樓 時間: 2020-12-14 20:30:58 (台灣)
  12-14 20:30 TW
中天:這樣我們要怎麼活!!!
14樓 時間: 2020-12-14 20:31:47 (台灣)
  12-14 20:31 TW
川普下達戒嚴令了!
15樓 時間: 2020-12-14 20:31:58 (台灣)
  12-14 20:31 TW
我的好了..
r)回覆 e)編輯 d)刪除 M)不收藏 ^x)轉錄 同主題: =)首篇 [)上篇 ])下篇